FW5697 Weather Reports


Display with metric or nautical units.
time (UTC)temp
F
wind
direction
speed
MPH
gust
MPH
rain 1hr
in
rain 24hr
in
rain mn
in
humidity
%
barometer
mb
20260903220043 96 0 0.0 2.0 0.00 0.00 0.00 49 1014.5
20260903214540 96 83 0.0 2.0 0.00 0.00 0.00 49 1014.4
20260903213040 96 51 0.0 1.0 0.00 0.00 0.00 52 1014.5
20260903211540 96 40 0.0 2.0 0.00 0.00 0.00 49 1014.7
20260903210048 96 0 0.0 2.0 0.00 0.00 0.00 49 1014.8
20260903204542 96 98 1.0 4.0 0.00 0.00 0.00 48 1014.9
20260903203033 96 97 0.0 3.0 0.00 0.00 0.00 50 1015.0
20260903201542 94 0 0.0 1.0 0.00 0.00 0.00 53 1015.4
20260903200039 94 0 0.0 2.0 0.00 0.00 0.00 52 1015.6
20260903194536 95 0 0.0 2.0 0.00 0.00 0.00 54 1015.8
20260903193039 94 307 0.0 2.0 0.00 0.00 0.00 56 1015.9
20260903191537 94 0 0.0 0.0 0.00 0.00 0.00 56 1015.9
20260903190035 94 50 0.0 3.0 0.00 0.00 0.00 55 1016.1
20260903184535 94 0 0.0 4.0 0.00 0.00 0.00 54 1016.2
20260903183033 94 0 0.0 6.0 0.00 0.00 0.00 57 1016.5
20260903181535 92 0 0.0 4.0 0.00 0.00 0.00 59 1016.5
20260903180042 92 0 0.0 2.0 0.00 0.00 0.00 61 1016.6
20260903174536 92 0 0.0 3.0 0.00 0.00 0.00 60 1016.7
20260903173034 92 0 2.0 5.0 0.00 0.00 0.00 59 1016.9
20260903171533 91 0 0.0 1.0 0.00 0.00 0.00 63 1017.2
20260903170037 91 56 2.0 4.0 0.00 0.00 0.00 62 1017.5
20260903164533 90 103 0.0 3.0 0.00 0.00 0.00 64 1017.7
20260903163035 90 0 0.0 2.0 0.00 0.00 0.00 62 1017.8
20260903161534 90 0 0.0 2.0 0.00 0.00 0.00 65 1018.0
20260903160034 90 13 0.0 3.0 0.00 0.00 0.00 65 1018.2
20260903154555 88 0 0.0 2.0 0.00 0.00 0.00 69 1018.3
20260903153034 87 0 0.0 3.0 0.00 0.00 0.00 72 1018.2
20260903151533 86 32 0.0 3.0 0.00 0.00 0.00 74 1018.2
20260903150034 85 0 0.0 1.0 0.00 0.00 0.00 78 1018.2
20260903144535 84 0 0.0 1.0 0.00 0.00 0.00 79 1018.1
20260903143044 82 0 0.0 0.0 0.00 0.00 0.00 82 1018.1
20260903141537 81 0 0.0 0.0 0.00 0.00 0.00 83 1018.1
20260903140033 80 0 0.0 0.0 0.00 0.00 0.00 88 1018.1
20260903134532 78 0 0.0 0.0 0.00 0.00 0.00 90 1018.2
20260903133036 77 0 0.0 0.0 0.00 0.00 0.00 93 1018.1
20260903131534 75 0 0.0 0.0 0.00 0.00 0.00 95 1018.2
20260903130037 75 0 0.0 0.0 0.00 0.00 0.00 96 1018.3
20260903124542 74 0 0.0 0.0 0.00 0.00 0.00 97 1018.5
20260903123037 73 0 0.0 0.0 0.00 0.00 0.00 97 1018.4
20260903121533 73 0 0.0 0.0 0.00 0.00 0.00 96 1018.2
20260903120031 73 0 0.0 0.0 0.00 0.00 0.00 97 1018.1
20260903114533 72 0 0.0 0.0 0.00 0.00 0.00 96 1017.9
20260903113032 72 0 0.0 0.0 0.00 0.00 0.00 96 1017.9
20260903111539 72 0 0.0 0.0 0.00 0.00 0.00 96 1017.5
20260903110045 72 0 0.0 0.0 0.00 0.00 0.00 96 1017.4
20260903104535 72 0 0.0 0.0 0.00 0.00 0.00 96 1017.3
20260903103036 72 0 0.0 0.0 0.00 0.00 0.00 96 1017.3
20260903101539 72 0 0.0 0.0 0.00 0.00 0.00 95 1017.1
20260903100035 73 0 0.0 0.0 0.00 0.00 0.00 95 1017.1
20260903094533 73 0 0.0 0.0 0.00 0.00 0.00 95 1017.1
20260903093035 73 0 0.0 0.0 0.00 0.00 0.00 95 1017.0
20260903091533 73 0 0.0 0.0 0.00 0.00 0.00 95 1016.9
20260903090036 73 0 0.0 0.0 0.00 0.00 0.00 95 1017.0
20260903084534 73 0 0.0 0.0 0.00 0.00 0.00 95 1017.2
20260903083038 73 0 0.0 0.0 0.00 0.00 0.00 95 1017.2
20260903081535 74 0 0.0 0.0 0.00 0.00 0.00 94 1017.1
20260903080036 74 0 0.0 0.0 0.00 0.00 0.00 94 1017.2
20260903074533 74 0 0.0 0.0 0.00 0.00 0.00 94 1017.1
20260903073035 74 0 0.0 0.0 0.00 0.00 0.00 94 1017.0
20260903071534 74 0 0.0 0.0 0.00 0.00 0.00 94 1017.1
20260903070037 74 0 0.0 0.0 0.00 0.00 0.00 94 1017.1
20260903064532 74 0 0.0 0.0 0.00 0.00 0.00 93 1017.0
20260903063102 75 0 0.0 0.0 0.00 0.00 0.00 93 1017.1
20260903061534 75 0 0.0 0.0 0.00 0.00 0.00 93 1017.2
20260903060034 75 0 0.0 0.0 0.00 0.00 0.00 93 1017.2
20260903054533 75 0 0.0 0.0 0.00 0.00 0.00 92 1017.1
20260903053033 75 0 0.0 0.0 0.00 0.00 0.00 92 1017.2
20260903051543 76 0 0.0 0.0 0.00 0.00 0.00 92 1017.3
20260903050050 76 0 0.0 0.0 0.00 0.00 0.00 91 1017.2
20260903044533 76 0 0.0 0.0 0.00 0.00 0.00 91 1017.2
20260903043033 76 0 0.0 0.0 0.00 0.00 0.00 91 1017.2
20260903041533 77 0 0.0 0.0 0.00 0.00 0.00 90 1017.2
20260903040038 77 0 0.0 0.0 0.00 0.00 0.00 90 1017.2
20260903034535 77 0 0.0 0.0 0.00 0.00 0.00 89 1017.3
20260903033037 77 0 0.0 0.0 0.00 0.00 0.00 89 1017.4
20260903031534 78 0 0.0 0.0 0.00 0.00 0.00 89 1017.5
20260903030034 78 0 0.0 0.0 0.00 0.00 0.00 88 1017.6
20260903024535 78 0 0.0 0.0 0.00 0.00 0.00 87 1017.5
20260903023041 79 0 0.0 0.0 0.00 0.00 0.00 86 1017.5
20260903021535 79 0 0.0 0.0 0.00 0.00 0.00 85 1017.6
20260903020040 79 0 0.0 0.0 0.00 0.00 0.00 85 1017.5
20260903014536 80 0 0.0 0.0 0.00 0.00 0.00 84 1017.5
20260903013036 80 0 0.0 0.0 0.00 0.00 0.00 82 1017.2
20260903011552 81 0 0.0 0.0 0.00 0.00 0.00 81 1016.9
20260903010033 82 0 0.0 0.0 0.00 0.00 0.00 79 1016.7
20260903004532 82 0 0.0 0.0 0.00 0.00 0.00 76 1016.8
20260903003034 83 0 0.0 0.0 0.00 0.00 0.00 74 1016.6
20260903001536 84 0 0.0 0.0 0.00 0.00 0.00 73 1016.5
20260903000035 85 0 0.0 0.0 0.00 0.00 0.00 72 1016.4
20260902234541 86 0 0.0 0.0 0.00 0.00 0.00 67 1016.3
20260902233037 89 0 0.0 2.0 0.00 0.00 0.00 63 1016.3
20260902231547 90 0 0.0 0.0 0.00 0.00 0.00 61 1016.2
20260902230034 91 0 0.0 0.0 0.00 0.00 0.00 59 1016.1
20260902224546 92 0 0.0 0.0 0.00 0.00 0.00 54 1016.1
20260902223035 94 0 0.0 0.0 0.00 0.00 0.00 53 1016.3
20260902221536 95 0 0.0 0.0 0.00 0.00 0.00 52 1016.2